Overview Statistics Trail Chart Weather Telemetry Raw packets
 

This is the latest recevied weather packets stored in our database for station/object N7IGG. If no packets are shown the sender has not sent any weather packets the latest 10 day(s).

<< 56 57 58 59 60 61 62 >>
Time Temp. Humidity Pressure Rain* Wind** Luminosity Snow
1777782455 18.89° C 55% 1013.8 hPa 0 mm - 0 W/m² -
1777782152 18.89° C 57% 1013.8 hPa 0 mm - 0 W/m² -
1777781848 18.89° C 56% 1013.7 hPa 0 mm - 0 W/m² -
1777781546 19.44° C 54% 1013.6 hPa 0 mm - 0 W/m² -
1777781244 19.44° C 55% 1013.6 hPa 0 mm - 0 W/m² -
1777780941 19.44° C 54% 1013.6 hPa 0 mm - 0 W/m² -
1777780638 20° C 52% 1013.6 hPa 0 mm - 0 W/m² -
1777780335 19.44° C 54% 1013.4 hPa 0 mm - 0 W/m² -
1777780032 19.44° C 55% 1013.4 hPa 0 mm - 0 W/m² -
1777779729 19.44° C 55% 1013.3 hPa 0 mm - 0 W/m² -
1777779426 19.44° C 55% 1013.2 hPa 0 mm - 0 W/m² -
1777779124 19.44° C 55% 1013.3 hPa 0 mm - 0 W/m² -
1777778822 20° C 55% 1013.1 hPa 0 mm - 0 W/m² -
1777778520 20° C 53% 1013.3 hPa 0 mm - 0 W/m² -
1777778217 20.56° C 52% 1013 hPa 0 mm - 2 W/m² -
1777777915 21.11° C 52% 1013 hPa 0 mm - 5 W/m² -
1777777611 21.11° C 52% 1012.8 hPa 0 mm - 9 W/m² -
1777777307 21.67° C 52% 1012.9 hPa 0 mm - 12 W/m² -
1777777004 21.67° C 51% 1012.9 hPa 0 mm - 16 W/m² -
1777776703 21.67° C 51% 1012.8 hPa 0 mm - 21 W/m² -
1777776398 22.22° C 52% 1012.7 hPa 0 mm - 26 W/m² -
1777776096 22.22° C 50% 1012.7 hPa 0 mm - 29 W/m² -
1777775793 22.22° C 50% 1012.9 hPa 0 mm - 34 W/m² -
1777775490 22.22° C 50% 1013 hPa 0 mm - 38 W/m² -
1777775186 22.78° C 50% 1012.8 hPa 0 mm - 43 W/m² -

* Rain latest hour (hover to see other rain measurements)
** Current wind speed in m/s (hover to see current wind gust speed)